Bookmark and Share
Track history (hours):
 

Betagas

Last reported at 2014-Apr-19 06:28 UTC. Time now 2014-Apr-19 07:01 UTC.
Position N 51°35' E 003°24'.

Length 114.6 m; beam 15.7 m; draft 7.4 m.

Type: Tanker. MMSI: 304050636.

NotesDate/timePositionNaut miles runAvg speedWind from/ knotsBaromVisibWave heightAir tempDewpointWater temp
2014-Apr-19 06:28N 51°35' E 003°24'1213.6
2014-Apr-19 05:33N 51°26' E 003°37'8 7.7
2014-Apr-19 04:32N 51°21' E 003°46'0 0.0
2014-Apr-19 03:33N 51°21' E 003°46'0 0.0
2014-Apr-19 02:27N 51°21' E 003°46'0 0.0
2014-Apr-19 01:23N 51°21' E 003°46'0 0.0
2014-Apr-19 00:32N 51°21' E 003°46'0 0.0
2014-Apr-18 23:16N 51°21' E 003°46'0 0.0
2014-Apr-18 21:21N 51°21' E 003°46'0 0.0
2014-Apr-18 19:33N 51°21' E 003°46'0 0.0
2014-Apr-18 18:26N 51°21' E 003°46'0 0.0
2014-Apr-18 17:32N 51°21' E 003°46'0 0.0
2014-Apr-18 16:22N 51°21' E 003°46'0 0.0
2014-Apr-18 15:28N 51°21' E 003°46'0 0.0
2014-Apr-18 14:31N 51°21' E 003°46'0 0.0
2014-Apr-18 13:33N 51°21' E 003°46'0 0.0
2014-Apr-18 12:17N 51°21' E 003°46'0 0.0
2014-Apr-18 11:20N 51°21' E 003°46'0 0.0
2014-Apr-18 10:05N 51°21' E 003°46'0 0.0
2014-Apr-18 08:07N 51°21' E 003°46'0 0.0
2014-Apr-18 07:30N 51°21' E 003°46'0 0.0
2014-Apr-18 06:30N 51°21' E 003°46'0 0.0
2014-Apr-18 05:33N 51°21' E 003°46'0 0.0
2014-Apr-18 04:32N 51°21' E 003°46'0 0.0
2014-Apr-18 03:32N 51°21' E 003°46'0 0.0
2014-Apr-18 02:31N 51°21' E 003°46'0 0.0
2014-Apr-18 01:07N 51°21' E 003°46'0 0.0
2014-Apr-18 00:27N 51°21' E 003°46'0 0.0
2014-Apr-17 23:27N 51°21' E 003°46'0 0.0
2014-Apr-17 20:26N 51°21' E 003°46'0 0.0
2014-Apr-17 19:25N 51°21' E 003°46'0 0.0
2014-Apr-17 18:31N 51°21' E 003°46'0 0.2
2014-Apr-17 17:34N 51°21' E 003°46'9 9.1
2014-Apr-17 16:33N 51°26' E 003°34'1312.5
2014-Apr-17 15:33N 51°36' E 003°22'11 1.2
2014-Apr-17 06:31N 51°46' E 003°13'1212.1
2014-Apr-17 05:32N 51°47' E 002°54'2410.0
2014-Apr-17 03:10N 52°02' E 002°24'16 9.8
2014-Apr-17 01:30N 52°18' E 002°16'1010.8
2014-Apr-17 00:33N 52°27' E 002°10'1111.5
2014-Apr-16 23:33N 52°38' E 002°04'1111.4
2014-Apr-16 22:33N 52°47' E 001°53'1313.0
2014-Apr-16 21:33N 52°55' E 001°36'1313.0
2014-Apr-16 20:33N 53°06' E 001°24'1412.9
2014-Apr-16 19:30N 53°18' E 001°12'2512.7
2014-Apr-16 17:32N 53°39' E 000°50'1312.9
2014-Apr-16 16:33N 53°49' E 000°37'1312.6
2014-Apr-16 15:33N 53°59' E 000°25'1212.1
2014-Apr-16 14:33N 54°10' E 000°14'1111.3
2014-Apr-16 13:33N 54°19' E 000°04'1110.6
2014-Apr-16 12:34N 54°28' W 000°05'1010.1
2014-Apr-16 11:33N 54°37' W 000°15'10 9.8
2014-Apr-16 10:33N 54°45' W 000°23'10 9.8
2014-Apr-16 09:32N 54°54' W 000°33'1110.1
2014-Apr-16 08:29N 55°03' W 000°42'1010.6
2014-Apr-16 07:32N 55°12' W 000°51'1110.8
2014-Apr-16 06:32N 55°21' W 001°01'1211.4
2014-Apr-16 05:31N 55°31' W 001°11'3012.2
2014-Apr-16 03:04N 55°53' W 001°47'612.0
2014-Apr-16 02:33N 55°58' W 001°55'1211.6
2014-Apr-16 01:33N 56°02' W 002°14'1211.5
2014-Apr-16 00:33N 56°06' W 002°33'1110.9
2014-Apr-15 23:33N 56°05' W 002°52'1110.8
2014-Apr-15 22:33N 56°02' W 003°11'1211.7
2014-Apr-15 21:33N 56°02' W 003°32'5 5.5
2014-Apr-15 20:33N 56°02' W 003°41'0 0.0
2014-Apr-15 19:31N 56°02' W 003°41'0 0.1
2014-Apr-15 18:31N 56°02' W 003°41'0 0.0
2014-Apr-15 17:31N 56°02' W 003°41'0 0.0
2014-Apr-15 16:33N 56°02' W 003°41'0 0.0
2014-Apr-15 15:33N 56°02' W 003°41'0 0.1
2014-Apr-15 14:32N 56°02' W 003°41'0 0.0
2014-Apr-15 12:32N 56°02' W 003°41'0 0.0
2014-Apr-15 10:31N 56°02' W 003°41'0 0.1
2014-Apr-15 09:32N 56°02' W 003°41'0 0.0
2014-Apr-15 08:32N 56°02' W 003°41'0 0.0
2014-Apr-15 07:31N 56°02' W 003°41'0 0.0
2014-Apr-15 06:34N 56°02' W 003°41'0 0.0
2014-Apr-15 05:33N 56°02' W 003°41'0 0.0
2014-Apr-15 03:29N 56°02' W 003°41'0 0.0
2014-Apr-15 02:32N 56°02' W 003°41'0 0.0
2014-Apr-15 00:31N 56°02' W 003°41'0 0.4
2014-Apr-14 23:34N 56°02' W 003°41'7 6.6
2014-Apr-14 22:34N 56°01' W 003°29'1313.0
2014-Apr-14 21:34N 56°04' W 003°06'4 4.0
2014-Apr-14 20:31N 56°07' W 003°04'0 0.0
2014-Apr-14 19:30N 56°08' W 003°04'0 0.0
2014-Apr-14 18:33N 56°08' W 003°04'5 5.4
2014-Apr-14 17:34N 56°07' W 002°54'1211.7
2014-Apr-14 16:34N 56°06' W 002°33'1211.8
2014-Apr-14 15:33N 56°02' W 002°13'1211.7
2014-Apr-14 14:29N 55°57' W 001°53'6110.2
2014-Apr-14 08:33N 55°02' W 001°10'1212.1
2014-Apr-14 07:33N 54°50' W 001°07'1111.0
2014-Apr-14 06:32N 54°38' W 001°09'2 0.3
2014-Apr-13 22:08N 54°36' W 001°10'0 0.0
2014-Apr-13 20:28N 54°36' W 001°10'0 0.0
2014-Apr-13 19:33N 54°36' W 001°10'0 0.0
2014-Apr-13 17:14N 54°36' W 001°10'0 0.0
2014-Apr-13 16:32N 54°36' W 001°10'0 0.0
2014-Apr-13 15:32N 54°36' W 001°10'0 0.0
2014-Apr-13 14:25N 54°36' W 001°10'0 0.0
2014-Apr-13 13:19N 54°36' W 001°10'0 0.0
2014-Apr-13 12:24N 54°36' W 001°10'0 0.0
2014-Apr-13 11:21N 54°36' W 001°10'0 0.0
2014-Apr-13 10:33N 54°36' W 001°10'0 0.0
2014-Apr-13 09:13N 54°36' W 001°10'4 6.2
2014-Apr-13 08:33N 54°40' W 001°07'2311.5
2014-Apr-13 06:33N 54°37' W 000°27'1111.3
2014-Apr-13 05:33N 54°35' W 000°08'1110.6
2014-Apr-13 04:33N 54°33' E 000°10'1010.3
2014-Apr-13 03:33N 54°31' E 000°27'1010.3
2014-Apr-13 02:33N 54°29' E 000°45'17610.9
2014-Apr-12 10:26N 54°15' E 005°46'1410.9
2014-Apr-12 09:08N 54°12' E 006°10'3010.3
2014-Apr-12 06:16N 54°12' E 007°01'710.1
2014-Apr-12 05:33N 54°13' E 007°13'1010.5
2014-Apr-12 04:33N 54°13' E 007°31'1111.0
2014-Apr-12 03:33N 54°07' E 007°47'1212.2
2014-Apr-12 02:33N 54°01' E 008°05'1515.1
2014-Apr-12 01:33N 53°59' E 008°30'1515.1
2014-Apr-12 00:33N 53°50' E 008°52'1313.5
2014-Apr-11 23:33N 53°53' E 009°15'1313.2
2014-Apr-11 22:34N 53°43' E 009°29'4 3.5
2014-Apr-11 21:29N 53°39' E 009°31'0 0.0
2014-Apr-11 20:32N 53°39' E 009°31'0 0.0
2014-Apr-11 19:29N 53°39' E 009°31'0 0.0
2014-Apr-11 18:31N 53°39' E 009°31'0 0.0
2014-Apr-11 17:31N 53°39' E 009°31'0 0.0
2014-Apr-11 16:33N 53°39' E 009°31'0 0.0
2014-Apr-11 15:33N 53°39' E 009°31'0 0.0
2014-Apr-11 14:32N 53°39' E 009°31'0 0.0
2014-Apr-11 13:23N 53°39' E 009°31'0 0.0
2014-Apr-11 12:25N 53°39' E 009°31'0 0.0
2014-Apr-11 11:25N 53°39' E 009°31'0 0.0
2014-Apr-11 10:25N 53°39' E 009°31'0 0.0
2014-Apr-11 09:21N 53°39' E 009°31'0 0.0
2014-Apr-11 08:33N 53°39' E 009°31'0 0.0
2014-Apr-11 07:32N 53°39' E 009°31'0 0.0
2014-Apr-11 06:32N 53°39' E 009°31'0 0.0
2014-Apr-11 05:31N 53°39' E 009°31'0 0.0
2014-Apr-11 04:22N 53°39' E 009°31'0 0.0
2014-Apr-11 03:31N 53°39' E 009°31'0 0.0
2014-Apr-11 02:31N 53°39' E 009°31'5 5.2
2014-Apr-11 01:33N 53°44' E 009°27'1211.8
2014-Apr-11 00:33N 53°53' E 009°14'1212.1
2014-Apr-10 23:33N 53°50' E 008°54'1212.2
2014-Apr-10 22:34N 53°57' E 008°37'1313.4
2014-Apr-10 21:34N 53°60' E 008°14'1211.9
2014-Apr-10 20:33N 53°58' E 007°54'1212.4
2014-Apr-10 19:33N 53°55' E 007°34'1312.6
2014-Apr-10 18:33N 53°52' E 007°13'1313.0
2014-Apr-10 17:33N 53°49' E 006°52'1413.2
2014-Apr-10 16:30N 53°46' E 006°29'1313.0
2014-Apr-10 15:32N 53°42' E 006°08'1312.9
2014-Apr-10 14:33N 53°38' E 005°48'1312.9
2014-Apr-10 13:33N 53°34' E 005°28'1312.6
2014-Apr-10 12:33N 53°30' E 005°07'1212.3
2014-Apr-10 11:34N 53°26' E 004°48'1312.3
2014-Apr-10 10:32N 53°16' E 004°36'2311.5
2014-Apr-10 08:33N 52°55' E 004°18'1111.2
2014-Apr-10 07:34N 52°46' E 004°10'1111.1
2014-Apr-10 06:32N 52°37' E 003°57'1411.1
2014-Apr-10 05:15N 52°27' E 003°40'811.0
2014-Apr-10 04:33N 52°22' E 003°31'1411.0
2014-Apr-10 03:17N 52°09' E 003°25'3311.5
2014-Apr-10 00:27N 51°36' E 003°23'1314.0
2014-Apr-09 23:33N 51°26' E 003°36'8 7.2
2014-Apr-09 22:25N 51°21' E 003°46'0 0.0
2014-Apr-09 21:31N 51°21' E 003°46'0 0.0
2014-Apr-09 20:30N 51°21' E 003°46'0 0.0
2014-Apr-09 19:33N 51°21' E 003°46'0 0.0
2014-Apr-09 18:30N 51°21' E 003°46'0 0.0
2014-Apr-09 17:29N 51°21' E 003°46'0 0.0
2014-Apr-09 16:32N 51°21' E 003°46'0 0.0
2014-Apr-09 15:28N 51°21' E 003°46'0 0.0
2014-Apr-09 14:28N 51°21' E 003°46'0 0.0
2014-Apr-09 13:33N 51°21' E 003°46'0 0.0
2014-Apr-09 12:33N 51°21' E 003°46'0 0.0
2014-Apr-09 11:33N 51°21' E 003°46'0 0.0
2014-Apr-09 10:26N 51°21' E 003°46'0 0.0
2014-Apr-09 09:32N 51°21' E 003°46'0 0.0
2014-Apr-09 08:31N 51°21' E 003°46'0 0.0
2014-Apr-09 07:31N 51°21' E 003°46'0 0.0
2014-Apr-09 06:30N 51°21' E 003°46'  

Dump ship's entire track history

sailing weather and tide predictions

Betagas — V2KA8 — position and weather